Location: Unspecified
(48.2082°N, 0.0000°E)
Time: 21:10:10
(UTC+00:00)

Altair - Pass Details

Date: 27 June 2019
Orbit: 1501 x 1683 km, 47.2° (Epoch: 18 July)

Event Time Altitude Azimuth Distance (km) Brightness Sun altitude
Rises 03:07:49 0° 283° (WNW) 4,882 9.8 -7.4°
Reaches altitude 10° 03:15:45 10° 244° (WSW) 3,926 9.1 -6.5°
Maximum altitude 03:16:33 10° 240° (WSW) 3,918 9.0 -6.4°
Drops below altitude 10° 03:17:20 10° 235° (SW) 3,929 9.0 -6.3°
Sets 03:25:24 0° 196° (SSW) 4,922 9.6 -5.3°
